This demonstration page uses our WeatherBlox Daily Observations layout. Learn more.

Left ArrowRight Arrow

39.01783, -85.05884

Hourly Observations for November 2, 2018

Temp ( °F °C ) Dew Point ( °F °C ) Humidity (%) Winds ( mph kmh ) Pressure ( in mb ) Visibility ( mi km ) Precip ( " mm )
12:42 am 00:42 Cloudy 48 8.9 46 7.8 93 93 SW 18 30 29.62 1003 10 16 0.00 0.00
12:52 am 00:52 Cloudy with Mist and Fog 48 8.9 46 7.8 93 93 SW 13 20 29.61 1003 6 10 0.00 0.00
1:07 am 01:07 Cloudy 48 8.9 46 7.8 93 93 WSW 14 22 29.62 1003 10 16 0.00 0.00
1:40 am 01:40 Cloudy with Light Rain 48 8.9 46 7.8 93 93 W 10 17 29.65 1004 8 13 0.00 0.03
1:52 am 01:52 Cloudy 47 8.3 46 7.8 97 97 W 13 20 29.64 1004 10 16 0.00 0.03
2:52 am 02:52 Cloudy with Light Rain 45 7.2 44 6.7 97 97 W 15 24 29.68 1005 3 5 0.01 0.25
3:17 am 03:17 Cloudy 45 7.2 44 6.7 97 97 W 13 20 29.71 1006 3 5 0.00 0.03
3:52 am 03:52 Cloudy with Light Rain 44 6.7 43 6.1 96 96 WNW 9 15 29.71 1006 3 5 0.00 0.03
4:52 am 04:52 Cloudy 43 6.1 41 5 93 93 WNW 10 17 29.74 1007 10 16 0.00 0.03
5:15 am 05:15 Cloudy 43 6.1 41 5 93 93 WNW 9 15 29.77 1008 10 16 0.00 0.00
5:52 am 05:52 Cloudy 42 5.6 40 4.4 92 92 WNW 8 13 29.78 1008 10 16 0.00 0.03
6:52 am 06:52 Cloudy 42 5.6 41 5 96 96 WNW 10 17 29.79 1009 10 16 0.01 0.25
7:33 am 07:33 Cloudy 42 5.6 41 5 96 96 W 8 13 29.83 1010 10 16 0.00 0.00
7:52 am 07:52 Cloudy 42 5.6 40 4.4 92 92 W 7 11 29.80 1009 10 16 0.00 0.00
8:52 am 08:52 Cloudy 42 5.6 39 3.9 89 89 WNW 7 11 29.82 1010 10 16 0.00 0.00
9:52 am 09:52 Cloudy 42 5.6 39 3.9 89 89 WNW 6 9 29.82 1010 10 16 0.00 0.00
10:37 am 10:37 Cloudy 43 6.1 40 4.4 89 89 WNW 5 7 29.85 1011 10 16 0.00 0.00
10:52 am 10:52 Cloudy 44 6.7 39 3.9 83 83 NW 9 15 29.82 1010 10 16 0.00 0.00
11:52 am 11:52 Mostly Cloudy 44 6.7 39 3.9 83 83 NW 6 9 29.83 1010 10 16 0.00 0.00
12:37 pm 12:37 Cloudy 44 6.7 39 3.9 83 83 W 6 9 29.88 1012 10 16 0.00 0.00
12:52 pm 12:52 Cloudy 44 6.7 39 3.9 83 83 WNW 6 9 29.85 1011 10 16 0.00 0.00
1:13 pm 13:13 Cloudy with Drizzle 44 6.7 41 5 89 89 W 8 13 29.85 1011 3 4 0.00 0.03
1:32 pm 13:32 Cloudy with Drizzle 43 6.1 41 5 93 93 W 7 11 29.88 1012 3 4 0.00 0.03
1:36 pm 13:36 Cloudy with Drizzle 43 6.1 41 5 93 93 W 7 11 29.85 1011 3 4 0.00 0.03
1:52 pm 13:52 Cloudy with Drizzle 43 6.1 42 5.6 97 97 NW 9 15 29.84 1010 3 4 0.00 0.03
2:26 pm 14:26 Cloudy with Mist and Fog 44 6.7 42 5.6 93 93 NW 9 15 29.85 1011 3 4 0.00 0.03
2:52 pm 14:52 Cloudy with Mist and Fog 44 6.7 42 5.6 93 93 WNW 10 17 29.82 1010 6 10 0.00 0.03
3:52 pm 15:52 Cloudy 45 7.2 41 5 86 86 NNW 15 24 29.80 1009 10 16 0.00 0.00
4:52 pm 16:52 Cloudy 44 6.7 40 4.4 85 85 NNW 8 13 29.83 1010 10 16 0.00 0.00
5:22 pm 17:22 Cloudy 44 6.7 39 3.9 83 83 NW 7 11 29.85 1011 10 16 0.00 0.00
5:52 pm 17:52 Cloudy 44 6.7 39 3.9 83 83 NW 6 9 29.83 1010 10 16 0.00 0.00
6:52 pm 18:52 Cloudy with Light Rain 43 6.1 39 3.9 86 86 N 3 6 29.84 1011 10 16 0.00 0.03
7:52 pm 19:52 Cloudy with Light Rain 43 6.1 40 4.4 89 89 WSW 3 6 29.86 1011 10 16 0.00 0.03
8:52 pm 20:52 Cloudy 43 6.1 40 4.4 89 89 WSW 3 6 29.88 1012 10 16 0.01 0.25
9:52 pm 21:52 Cloudy 42 5.6 40 4.4 92 92 WSW 5 7 29.88 1012 10 16 0.00 0.00
10:52 pm 22:52 Cloudy with Light Rain 42 5.6 41 5 96 96 WSW 3 6 29.89 1012 10 16 0.00 0.03
11:19 pm 23:19 Cloudy with Light Rain 43 6.1 40 4.4 89 89 W 16 26 29.91 1013 8 13 0.00 0.03
11:52 pm 23:52 Cloudy with Light Rain 41 5 39 3.9 93 93 W 10 17 29.89 1012 10 16 0.01 0.25

Powered by AerisWeather